Time,TemperatureF,DewpointF,PressureIn,WindDirection,WindDirectionDegrees,WindSpeedMPH,WindSpeedGustMPH,Humidity,HourlyPrecipIn,Conditions,Clouds,dailyrainin,SoftwareType,DateUTC
2013-11-26 00:12:00,24.0,19.0,30.29,SW,225,0.0,1.0,82,0.00,,,0.00,,2013-11-26 06:12:00,
2013-11-26 00:22:00,24.0,20.0,30.29,SW,225,0.0,1.0,83,0.00,,,0.00,,2013-11-26 06:22:00,
2013-11-26 00:42:00,25.0,21.0,30.29,West,266,0.0,4.0,83,0.00,,,0.00,,2013-11-26 06:42:00,
2013-11-26 00:52:00,25.0,21.0,30.29,West,266,0.0,1.0,83,0.00,,,0.00,,2013-11-26 06:52:00,
2013-11-26 01:12:00,25.0,21.0,30.28,West,266,0.0,0.0,83,0.00,,,0.00,,2013-11-26 07:12:00,
2013-11-26 01:21:00,25.0,21.0,30.27,West,277,0.0,3.0,83,0.00,,,0.00,,2013-11-26 07:21:00,
2013-11-26 01:42:00,25.0,21.0,30.27,West,277,0.0,0.0,83,0.00,,,0.00,,2013-11-26 07:42:00,
2013-11-26 01:52:00,25.0,21.0,30.27,West,277,0.0,0.0,84,0.00,,,0.00,,2013-11-26 07:52:00,
2013-11-26 02:22:00,25.0,21.0,30.27,WNW,290,0.0,0.0,84,0.00,,,0.00,,2013-11-26 08:22:00,
2013-11-26 02:42:00,25.0,21.0,30.27,WNW,290,0.0,0.0,84,0.00,,,0.00,,2013-11-26 08:42:00,
2013-11-26 02:52:00,24.0,20.0,30.27,WNW,290,0.0,0.0,84,0.00,,,0.00,,2013-11-26 08:52:00,
2013-11-26 03:21:00,23.0,19.0,30.27,WNW,290,0.0,0.0,85,0.00,,,0.00,,2013-11-26 09:21:00,
2013-11-26 03:43:00,23.0,19.0,30.28,WNW,290,0.0,0.0,86,0.00,,,0.00,,2013-11-26 09:43:00,
2013-11-26 03:53:00,23.0,19.0,30.28,WNW,290,0.0,0.0,86,0.00,,,0.00,,2013-11-26 09:53:00,
2013-11-26 04:12:00,23.0,19.0,30.29,WNW,290,0.0,0.0,86,0.00,,,0.00,,2013-11-26 10:12:00,
2013-11-26 04:23:00,22.0,19.0,30.29,WNW,290,0.0,0.0,87,0.00,,,0.00,,2013-11-26 10:23:00,
2013-11-26 04:53:00,22.0,19.0,30.29,WNW,290,0.0,0.0,87,0.00,,,0.00,,2013-11-26 10:53:00,
2013-11-26 05:23:00,21.0,18.0,30.28,WNW,290,0.0,0.0,88,0.00,,,0.00,,2013-11-26 11:23:00,
2013-11-26 05:52:00,21.0,18.0,30.29,WNW,290,0.0,0.0,88,0.00,,,0.00,,2013-11-26 11:52:00,
2013-11-26 06:22:00,22.0,19.0,30.29,WNW,290,0.0,0.0,89,0.00,,,0.00,,2013-11-26 12:22:00,
2013-11-26 06:42:00,22.0,19.0,30.29,WNW,290,0.0,0.0,89,0.00,,,0.00,,2013-11-26 12:42:00,
2013-11-26 06:52:00,23.0,21.0,30.30,WNW,290,0.0,0.0,90,0.00,,,0.00,,2013-11-26 12:52:00,
2013-11-26 07:22:00,24.0,21.0,30.30,WNW,290,0.0,2.0,89,0.00,,,0.00,,2013-11-26 13:22:00,
2013-11-26 07:42:00,24.0,21.0,30.31,NW,310,1.0,5.0,89,0.00,,,0.00,,2013-11-26 13:42:00,
2013-11-26 07:52:00,24.0,21.0,30.31,NW,323,0.0,6.0,88,0.00,,,0.00,,2013-11-26 13:52:00,
2013-11-26 08:22:00,25.0,22.0,30.32,NNW,337,2.0,9.0,87,0.00,,,0.00,,2013-11-26 14:22:00,
2013-11-26 08:52:00,26.0,22.0,30.34,NW,313,4.0,12.0,86,0.00,,,0.00,,2013-11-26 14:52:00,
2013-11-26 09:22:00,27.0,23.0,30.35,NW,318,4.0,11.0,83,0.00,,,0.00,,2013-11-26 15:22:00,
2013-11-26 09:54:00,29.0,23.0,30.36,NW,321,5.0,20.0,77,0.00,,,0.00,,2013-11-26 15:54:00,
2013-11-26 10:23:00,30.0,22.0,30.36,WNW,300,7.0,18.0,71,0.00,,,0.00,,2013-11-26 16:23:00,
2013-11-26 10:54:00,30.0,21.0,30.37,NW,323,8.0,17.0,68,0.00,,,0.00,,2013-11-26 16:54:00,
2013-11-26 11:22:00,30.0,20.0,30.37,NNW,338,9.0,19.0,67,0.00,,,0.00,,2013-11-26 17:22:00,
2013-11-26 11:42:00,30.0,20.0,30.37,NNW,343,6.0,17.0,67,0.00,,,0.00,,2013-11-26 17:42:00,
2013-11-26 11:52:00,30.0,20.0,30.36,NNW,329,6.0,17.0,67,0.00,,,0.00,,2013-11-26 17:52:00,
2013-11-26 12:22:00,31.0,21.0,30.37,North,355,5.0,19.0,65,0.00,,,0.00,,2013-11-26 18:22:00,
2013-11-26 12:42:00,31.0,21.0,30.37,NNE,18,5.0,21.0,65,0.00,,,0.00,,2013-11-26 18:42:00,
2013-11-26 12:53:00,32.0,21.0,30.37,NNE,13,5.0,21.0,64,0.00,,,0.00,,2013-11-26 18:53:00,
2013-11-26 13:22:00,32.0,21.0,30.35,North,9,4.0,17.0,63,0.00,,,0.00,,2013-11-26 19:22:00,
2013-11-26 13:52:00,33.0,21.0,30.36,ENE,76,3.0,17.0,60,0.00,,,0.00,,2013-11-26 19:52:00,
2013-11-26 14:22:00,33.0,20.0,30.36,NW,306,9.0,16.0,58,0.00,,,0.00,,2013-11-26 20:22:00,
2013-11-26 14:32:00,33.0,20.0,30.36,NW,306,9.0,16.0,58,0.00,,,0.00,,2013-11-26 20:32:00,
2013-11-26 14:42:00,33.0,20.0,30.36,NW,306,9.0,16.0,58,0.00,,,0.00,,2013-11-26 20:42:00,
2013-11-26 14:53:00,35.0,19.0,30.35,NNE,22,6.0,20.0,51,0.00,,,0.00,,2013-11-26 20:53:00,
2013-11-26 15:11:00,34.0,17.0,30.35,North,355,9.0,21.0,50,0.00,,,0.00,,2013-11-26 21:11:00,
2013-11-26 15:22:00,34.0,17.0,30.36,NNW,327,8.0,16.0,50,0.00,,,0.00,,2013-11-26 21:22:00,
2013-11-26 15:43:00,34.0,16.0,30.37,NW,315,6.0,18.0,48,0.00,,,0.00,,2013-11-26 21:43:00,
2013-11-26 15:53:00,33.0,15.0,30.36,NW,320,5.0,15.0,46,0.00,,,0.00,,2013-11-26 21:53:00,
2013-11-26 16:23:00,33.0,15.0,30.37,NNW,333,6.0,15.0,47,0.00,,,0.00,,2013-11-26 22:23:00,
2013-11-26 16:43:00,32.0,15.0,30.38,NNW,331,9.0,20.0,48,0.00,,,0.00,,2013-11-26 22:43:00,
2013-11-26 16:53:00,32.0,16.0,30.38,WNW,286,5.0,18.0,51,0.00,,,0.00,,2013-11-26 22:53:00,
2013-11-26 17:22:00,31.0,16.0,30.40,North,11,4.0,12.0,53,0.00,,,0.00,,2013-11-26 23:22:00,
2013-11-26 17:43:00,30.0,17.0,30.41,WNW,301,5.0,15.0,59,0.00,,,0.00,,2013-11-26 23:43:00,
2013-11-26 17:53:00,28.0,16.0,30.43,NNE,19,4.0,13.0,60,0.00,,,0.00,,2013-11-26 23:53:00,
2013-11-26 18:11:00,28.0,16.0,30.43,NNE,24,5.0,13.0,60,0.00,,,0.00,,2013-11-27 00:11:00,
2013-11-26 18:21:00,27.0,15.0,30.44,NNW,340,2.0,12.0,60,0.00,,,0.00,,2013-11-27 00:21:00,
2013-11-26 18:52:00,26.0,14.0,30.44,North,10,5.0,15.0,60,0.00,,,0.00,,2013-11-27 00:52:00,
2013-11-26 19:21:00,25.0,14.0,30.45,NW,322,2.0,12.0,62,0.00,,,0.00,,2013-11-27 01:21:00,
2013-11-26 19:42:00,25.0,14.0,30.45,NNE,17,5.0,12.0,63,0.00,,,0.00,,2013-11-27 01:42:00,
2013-11-26 19:52:00,25.0,14.0,30.46,North,11,3.0,13.0,63,0.00,,,0.00,,2013-11-27 01:52:00,
2013-11-26 20:12:00,24.0,13.0,30.47,North,355,4.0,14.0,62,0.00,,,0.00,,2013-11-27 02:12:00,
2013-11-26 20:21:00,24.0,13.0,30.47,NW,311,5.0,12.0,63,0.00,,,0.00,,2013-11-27 02:21:00,
2013-11-26 20:42:00,23.0,12.0,30.48,NNW,341,2.0,13.0,63,0.00,,,0.00,,2013-11-27 02:42:00,
2013-11-26 20:52:00,23.0,12.0,30.48,NNW,348,4.0,13.0,63,0.00,,,0.00,,2013-11-27 02:52:00,
2013-11-26 21:21:00,22.0,11.0,30.49,NNW,348,3.0,11.0,61,0.00,,,0.00,,2013-11-27 03:21:00,
2013-11-26 21:44:00,22.0,11.0,30.49,North,349,2.0,10.0,61,0.00,,,0.00,,2013-11-27 03:44:00,
2013-11-26 21:53:00,22.0,10.0,30.49,NNW,331,1.0,8.0,59,0.00,,,0.00,,2013-11-27 03:53:00,
2013-11-26 22:13:00,21.0,9.0,30.49,NNW,333,0.0,10.0,59,0.00,,,0.00,,2013-11-27 04:13:00,
2013-11-26 22:43:00,21.0,9.0,30.51,North,10,1.0,9.0,58,0.00,,,0.00,,2013-11-27 04:43:00,
2013-11-26 22:53:00,21.0,9.0,30.51,NNW,329,4.0,9.0,58,0.00,,,0.00,,2013-11-27 04:53:00,
2013-11-26 23:22:00,20.0,8.0,30.51,NNW,341,0.0,4.0,60,0.00,,,0.00,,2013-11-27 05:22:00,
2013-11-26 23:42:00,19.0,7.0,30.51,NNW,340,0.0,5.0,60,0.00,,,0.00,,2013-11-27 05:42:00,
2013-11-26 23:53:00,19.0,8.0,30.52,NNE,13,0.0,4.0,61,0.00,,,0.00,,2013-11-27 05:53:00,